THORAD AGENA D DEB, 5359

Orbit data source: Space-Track

THORAD AGENA D DEB, 5359 is space debris in SSO originally from a launch on Wed, 08 Apr 1970 UTC launched from the Air Force Western Test Range (AFWTR). Debris objects in space refer to the collection of defunct objects orbiting the Earth. Examples of debris include non-operational satellites, rocket bodies, and fragments generated from explosions, collisions, or faulty payload assembly.

Loading next visibility...
Identifier
5359, 1970-025KQ
Orbit
SSO
Country
Flag of USUS
Related business
Manufacturer
Unknown
Mission
Spacecraft
Bus & Motor
Unknown
Mass
Unknown
Launch date (UTC)
1970-04-08 (56 years ago)
Launch vehicle
Unknown
Launch site
Air Force Western Test Range (AFWTR)
Object type
Payload
Rocket body
Debris
Shape & HBR
Unknown shape, 0.1 m
Radar Cross Section
Small (<0.1 m²)

Expand to show TLE details & history
Last TLE update: 15 hours ago

TLE from 15 hours ago
0 THORAD AGENA D DEB
1 05359U 70025KQ  26033.83829752  .00000752  00000-0  85732-3 0  9996
2 05359 100.0082 350.4897 0005083  25.8071   2.7943 13.73701217774892
Epoch: 2026-02-02T20:07Z
TLE epoch observation values (Epoch: 2026-02-02T20:07:08.905Z)
Latitude
28.17359°
Longitude
-89.7207°
Altitude
985.945 km
Speed
7.363 km/s
True Right ascension
23h 00m 22s
True Declination
28° 02' 06"
Sunlit
Object was in daylight at epoch
Visualization orbit readout
Latitude
Unknown
Longitude
Unknown
Altitude
Unknown
Speed
Unknown
Apparent Right ascension
Unknown
Apparent Declination
Unknown
Sunlit
N/A
Visualization observer readout
Local Sidereal Time
13:17:07
Azimuth
Unknown
Elevation
Unknown
Doppler factor
Unknown
Orbital elements
Apogee altitude
987.341 km
Perigee altitude
979.857 km
Semi-major axis
7,361.736 km
Eccentricity
0.00051
Inclination
100.0082°
RAAN
350.4897°
Arg. of periapsis
25.8071°
True anomaly
2.79714°
Mean anomaly
2.7943°
Eccentric anomaly
2.79572°
Mean motion
3.43616 °/min
Orbital period
104.77 mins
BSTAR
0.00085732

Documentation

Showing up to 5 results
|